When you browse on this site, cookies collect data to enhance your experience and personalize the content and advertising you see.
Visit our Privacy Policy to learn more. By continuing to use the site, you agree to this use of cookies and data.
  • In Czech Republic
  • List of Countries
  • For 7 days
  • Water Temperature
  • Weather Map
  • Weather Widgets
  • user-avatar
    Login

    Hourly Weather Stuttgart

    Today, 18 February, Tuesday

    Time Temperature Precipitation Wind Pressure Humidity
    00:00 +5°C° 0.3 mm 5 mps 741 mmHg 81%
    01:00 +5°C° 0 mm 5 mps 741 mmHg 78%
    02:00 +3°C° 0 mm 5 mps 742 mmHg 79%
    03:00 +3°C° 0 mm 5 mps 742 mmHg 80%
    04:00 +3°C° 0 mm 5 mps 742 mmHg 82%
    05:00 +3°C° 0 mm 5 mps 743 mmHg 81%
    06:00 +3°C° 0 mm 5 mps 743 mmHg 81%
    07:00 +3°C° 0 mm 5 mps 743 mmHg 81%
    08:00 +3°C° 0 mm 5 mps 744 mmHg 79%
    09:00 +3°C° 0 mm 5 mps 744 mmHg 77%
    10:00 +3°C° 0 mm 5 mps 744 mmHg 75%
    11:00 +5°C° 0 mm 5 mps 744 mmHg 73%
    12:00 +5°C° 0 mm 5 mps 744 mmHg 70%
    13:00 +6°C° 0 mm 5 mps 744 mmHg 67%
    14:00 +6°C° 0 mm 5 mps 743 mmHg 66%
    15:00 +6°C° 0 mm 5 mps 743 mmHg 65%
    16:00 +6°C° 0 mm 5 mps 743 mmHg 64%
    17:00 +5°C° 0 mm 4 mps 743 mmHg 68%
    18:00 +4°C° 0 mm 4 mps 743 mmHg 72%
    19:00 +3°C° 0 mm 3 mps 743 mmHg 76%
    20:00 +3°C° 0 mm 3 mps 742 mmHg 77%
    21:00 +3°C° 0 mm 4 mps 742 mmHg 78%
    22:00 +3°C° 0 mm 4 mps 742 mmHg 79%
    23:00 +3°C° 0 mm 4 mps 742 mmHg 79%

    Tomorrow, 19 February, Wednesday

    Time Temperature Precipitation Wind Pressure Humidity
    00:00 +3°C° 0 mm 4 mps 741 mmHg 79%
    01:00 +3°C° 0 mm 4 mps 740 mmHg 79%
    02:00 +2°C° 0.1 mm 5 mps 740 mmHg 82%
    03:00 +2°C° 0.1 mm 5 mps 739 mmHg 85%
    04:00 +2°C° 0.1 mm 5 mps 738 mmHg 88%
    05:00 +2°C° 0.3 mm 6 mps 738 mmHg 88%
    06:00 +2°C° 0.3 mm 6 mps 738 mmHg 88%
    07:00 +2°C° 0.3 mm 7 mps 737 mmHg 88%
    08:00 +2°C° 0.6 mm 7 mps 738 mmHg 87%
    09:00 +2°C° 0.6 mm 7 mps 738 mmHg 86%
    10:00 +2°C° 0.6 mm 7 mps 738 mmHg 86%
    11:00 +2°C° 0.4 mm 7 mps 739 mmHg 81%
    12:00 +3°C° 0.4 mm 7 mps 740 mmHg 76%
    13:00 +3°C° 0.4 mm 7 mps 740 mmHg 72%
    14:00 +3°C° 0.2 mm 7 mps 740 mmHg 69%
    15:00 +3°C° 0.2 mm 6 mps 741 mmHg 67%
    16:00 +3°C° 0.2 mm 6 mps 741 mmHg 64%
    17:00 +2°C° 0 mm 5 mps 741 mmHg 69%
    18:00 +1°C° 0 mm 4 mps 742 mmHg 73%
    19:00 +1°C° 0 mm 3 mps 742 mmHg 78%
    20:00 +1°C° 0 mm 3 mps 742 mmHg 80%
    21:00 +1°C° 0 mm 3 mps 742 mmHg 82%
    22:00 +1°C° 0 mm 3 mps 742 mmHg 84%
    23:00 +1°C° 0 mm 3 mps 742 mmHg 85%

    Day after tomorrow, 20 February, Thursday

    Time Temperature Precipitation Wind Pressure Humidity
    00:00 +2°C° 0 mm 2 mps 742 mmHg 85%
    01:00 +2°C° 0 mm 2 mps 742 mmHg 86%
    02:00 +2°C° 0 mm 2 mps 741 mmHg 87%
    03:00 +2°C° 0 mm 2 mps 741 mmHg 88%
    04:00 +2°C° 0 mm 2 mps 740 mmHg 89%
    05:00 +3°C° 0 mm 2 mps 740 mmHg 88%
    06:00 +3°C° 0 mm 2 mps 740 mmHg 88%
    07:00 +3°C° 0 mm 2 mps 739 mmHg 87%
    08:00 +3°C° 0.1 mm 2 mps 739 mmHg 85%
    09:00 +5°C° 0.1 mm 1 mps 739 mmHg 84%
    10:00 +6°C° 0.1 mm 1 mps 739 mmHg 82%
    11:00 +6°C° 0 mm 2 mps 739 mmHg 78%
    12:00 +7°C° 0 mm 2 mps 738 mmHg 74%
    13:00 +9°C° 0 mm 2 mps 738 mmHg 70%
    14:00 +9°C° 0 mm 2 mps 738 mmHg 70%
    15:00 +9°C° 0 mm 2 mps 737 mmHg 70%
    16:00 +9°C° 0 mm 2 mps 736 mmHg 70%
    17:00 +8°C° 0 mm 2 mps 736 mmHg 75%
    18:00 +7°C° 0 mm 2 mps 737 mmHg 80%
    19:00 +5°C° 0 mm 2 mps 737 mmHg 84%
    20:00 +5°C° 0 mm 2 mps 736 mmHg 85%
    21:00 +4°C° 0 mm 3 mps 736 mmHg 85%
    22:00 +4°C° 0 mm 3 mps 736 mmHg 86%
    23:00 +4°C° 0 mm 4 mps 737 mmHg 84%

    21 February, Friday

    Time Temperature Precipitation Wind Pressure Humidity
    00:00 +5°C° 0 mm 5 mps 737 mmHg 82%
    01:00 +5°C° 0 mm 6 mps 737 mmHg 80%
    02:00 +4°C° 0.3 mm 6 mps 738 mmHg 80%
    03:00 +3°C° 0.3 mm 7 mps 739 mmHg 80%
    04:00 +2°C° 0.3 mm 7 mps 740 mmHg 80%
    05:00 +1°C° 0 mm 6 mps 741 mmHg 80%
    06:00 0°C° 0 mm 5 mps 743 mmHg 80%
    07:00 0°C° 0 mm 4 mps 744 mmHg 80%
    14:00 +5°C° 0 mm 4 mps 747 mmHg 61%
    15:00 +5°C° 0 mm 4 mps 747 mmHg 62%
    16:00 +5°C° 0 mm 4 mps 746 mmHg 62%
    17:00 +4°C° 0 mm 3 mps 746 mmHg 67%
    18:00 +4°C° 0 mm 2 mps 747 mmHg 71%
    19:00 +3°C° 0 mm 2 mps 747 mmHg 76%
    20:00 +3°C° 0 mm 2 mps 747 mmHg 77%
    21:00 +2°C° 0 mm 2 mps 747 mmHg 78%
    22:00 +3°C° 0 mm 1 mps 747 mmHg 79%
    23:00 +2°C° 0 mm 2 mps 747 mmHg 79%

    22 February, Saturday

    Time Temperature Precipitation Wind Pressure Humidity
    00:00 +2°C° 0 mm 2 mps 747 mmHg 79%
    01:00 +2°C° 0 mm 2 mps 747 mmHg 79%
    02:00 +2°C° 0 mm 2 mps 747 mmHg 78%
    03:00 +2°C° 0 mm 2 mps 746 mmHg 77%
    04:00 +1°C° 0 mm 2 mps 746 mmHg 76%
    05:00 +1°C° 0 mm 2 mps 746 mmHg 75%
    06:00 +1°C° 0 mm 2 mps 746 mmHg 74%
    07:00 +1°C° 0 mm 2 mps 746 mmHg 73%
    08:00 +3°C° 0 mm 2 mps 746 mmHg 68%
    09:00 +4°C° 0 mm 2 mps 746 mmHg 64%
    10:00 +5°C° 0 mm 2 mps 746 mmHg 59%
    11:00 +7°C° 0 mm 3 mps 746 mmHg 56%
    12:00 +8°C° 0 mm 3 mps 746 mmHg 52%
    13:00 +10°C° 0 mm 3 mps 745 mmHg 48%
    14:00 +10°C° 0 mm 3 mps 745 mmHg 49%
    15:00 +10°C° 0 mm 3 mps 744 mmHg 50%
    16:00 +10°C° 0 mm 3 mps 744 mmHg 51%
    17:00 +9°C° 0 mm 3 mps 744 mmHg 54%
    18:00 +8°C° 0 mm 3 mps 745 mmHg 57%
    19:00 +5°C° 0 mm 3 mps 745 mmHg 60%
    20:00 +5°C° 0 mm 3 mps 745 mmHg 59%
    21:00 +5°C° 0 mm 3 mps 745 mmHg 58%
    22:00 +5°C° 0 mm 4 mps 745 mmHg 57%
    23:00 +5°C° 0 mm 4 mps 745 mmHg 56%

    23 February, Sunday

    Time Temperature Precipitation Wind Pressure Humidity
    00:00 +5°C° 0 mm 4 mps 745 mmHg 56%
    01:00 +5°C° 0 mm 4 mps 745 mmHg 55%
    02:00 +6°C° 0 mm 4 mps 745 mmHg 56%
    03:00 +6°C° 0 mm 4 mps 745 mmHg 58%
    04:00 +6°C° 0 mm 4 mps 745 mmHg 59%
    05:00 +7°C° 0 mm 3 mps 745 mmHg 62%
    06:00 +7°C° 0 mm 3 mps 745 mmHg 66%
    07:00 +5°C° 0 mm 3 mps 745 mmHg 69%
    08:00 +7°C° 0 mm 3 mps 745 mmHg 69%
    09:00 +8°C° 0 mm 3 mps 745 mmHg 70%
    10:00 +9°C° 0 mm 3 mps 745 mmHg 70%
    11:00 +10°C° 0 mm 4 mps 745 mmHg 71%
    12:00 +11°C° 0 mm 4 mps 745 mmHg 71%
    13:00 +12°C° 0 mm 5 mps 745 mmHg 71%
    14:00 +12°C° 0 mm 5 mps 744 mmHg 72%
    15:00 +13°C° 0 mm 5 mps 744 mmHg 72%
    16:00 +13°C° 0 mm 5 mps 744 mmHg 72%
    17:00 +11°C° 0 mm 4 mps 744 mmHg 76%
    18:00 +10°C° 0 mm 3 mps 744 mmHg 80%
    19:00 +9°C° 0 mm 3 mps 744 mmHg 83%
    20:00 +9°C° 0 mm 2 mps 744 mmHg 84%
    21:00 +8°C° 0 mm 2 mps 744 mmHg 85%
    22:00 +8°C° 0 mm 2 mps 744 mmHg 86%
    23:00 +8°C° 0 mm 2 mps 744 mmHg 87%
    Show more